Regional Weather Roundup
Issued by NWS Northern Indiana

Home | Current Version | Previous Version | Text Only | Print | Product List | Glossary Off
Versions: 1 2 3 4 5 6 7 8 9 10 11 12 13 14 15 16 17 18 19 20 21 22 23 24 25 26 27 28 29 30 31 32 33 34 35 36 37 38 39 40 41 42 43 44 45 46 47 48 49 50

431
ASUS43 KIWX 221500
RWRIWX

KIWX WEATHER ROUNDUP
NATIONAL WEATHER SERVICE NORTHERN INDIANA
1000 AM EST MON JAN 22 2018

NOTE: "FAIR" INDICATES FEW OR NO CLOUDS BELOW 12,000 FEET WITH NO
SIGNIFICANT WEATHER AND/OR OBSTRUCTIONS TO VISIBILITY.

* THESE STATIONS ARE NOT UNDER NWS QUALITY CONTROL. THEY ALSO MAY NOT
  REPORT WEATHER SUCH AS PRECIPITATION OR FOG.

INZ001>027-221600-
NORTHERN INDIANA

CITY           SKY/WX    TMP DP  RH WIND       PRES   REMARKS
GARY*          CLOUDY    52  50  93 S13       29.61R
KNOX*          CLOUDY    50  46  87 S18G26    29.67R
SOUTH BEND     RAIN      50  46  86 S18G29    29.67F FOG
ELKHART*       LGT RAIN  48  46  93 S15G21    29.69F
GOSHEN         LGT RAIN  51  46  83 S21       29.70F
MONTICELLO*    CLOUDY    50  48  95 S14G21    29.68S
FORT WAYNE     LGT RAIN  52  46  80 S20       29.79R
PERU/GRISSOM   PTSUNNY   50  50 100 S22G33    29.73F

$$
INZ028>050-221600-
CENTRAL INDIANA

CITY           SKY/WX    TMP DP  RH WIND       PRES   REMARKS
LAFAYETTE      PTSUNNY   51  48  89 S17G30    29.70R
MUNCIE*        LGT RAIN  54  45  71 S15G29    29.82R
INDIANAPOLIS   RAIN      51  49  92 S23G36    29.80F FOG

$$
MIZ043>046-050>051-056>058-064>065-071>073-077>080-221600-
SOUTHWEST LOWER MICHIGAN

CITY           SKY/WX    TMP DP  RH WIND       PRES   REMARKS
BATTLE CREEK   LGT RAIN  48  46  93 S9        29.74R
BENTON HARBOR  LGT RAIN  49  46  90 SE13      29.64F FOG
COLDWATER*     CLOUDY    49  49 100 S12G18    29.76R
HILLSDALE*     PTSUNNY   45  45 100 SE9       29.76S FOG
HOLLAND        RAIN      40  38  93 E15       29.69F FOG
GRAND RAPIDS   RAIN      37  37 100 E14       29.75F FOG
KALAMAZOO      LGT RAIN  48  45  89 SE6       29.72R FOG
THREE RIVERS*  LGT RAIN  48  48  99 S10       29.72R

$$
OHZ001>008-015>018-024>025-221600-
NORTHWEST OHIO

CITY           SKY/WX    TMP DP  RH WIND       PRES   REMARKS
DEFIANCE       FAIR      53  43  68 S15       29.78F
FINDLAY        FAIR      51  43  74 S15       29.82F
TOLEDO EXPRESS CLOUDY    49  47  93 S8        29.80F
TOLEDO METCALF PTSUNNY   50  45  83 S14       29.83S
LIMA           FAIR      52  45  77 S14       29.82F

$$
AND FOR LAKE MICHIGAN COASTAL AND OPEN LAKE BUOY OBSERVATIONS

STATION/POSITION TEMP    WIND        PRES    VSBY  WAVE
                 AIR SEA DIR/SP/G                  HT/PER
                 (F)     (DEG/KT/KT) (MB)    (MI)  (FT/S)
CALUMET HARBOR    50     160/ 14/ 23 1001.7R
MICHIGAN CITY     50     160/ 21/ 26   N/A
BURNS HARBOR      51     180/ 21/ 28 1003.4F
SAINT JOSEPH      49     160/  4/  8 1005.1

$$
&&




USA.gov is the U.S. government's official web portal to all federal, state and local government web resources and services.